STARLINK-30184, 57310

Orbit data source: Space-Track

STARLINK-30184, 57310 is a payload satellite owned by SpaceX/Seattle (US) in LEO that was launched on Mon, 10 Jul 2023 UTC via an FALCON 9 launch vehicle from the Air Force Eastern Test Range (AFETR). Payload-class satellites include a variety of spacecraft equipped with specific instruments for various scientific and technological missions. These include communications satellites like Starlink; space stations such as the ISS; scientific satellites like the Hubble; Earth observation satellites from companies like Planet Labs, Umbra, and HawkEye 360; GPS; miniature CubeSats for education and research; and military/defense satellites.

Loading next visibility...
Identifier
57310, 2023-096W
Orbit
LEO
Country
Flag of USUS
Related business
Manufacturer
SpaceX/Seattle
Mission
Operational Commercial Communications
Bus & Motor
STARLINK V2M, Unknown motor
Mass
730 kg wet, ~700 kg dry
Launch date (UTC)
2023-07-10 (3 years ago)
Launch vehicle
FALCON 9
Launch site
Air Force Eastern Test Range (AFETR)
Object type
Payload
Rocket body
Debris
Shape & HBR
Box + 2 Pan, 17.7 m
Radar Cross Section
33.884 m², Large (>1 m²)

Expand to show TLE details & history
Last TLE update: 2 days ago

TLE from 2 days ago
0 STARLINK-30184
1 57310U 23096W   26171.43057367 -.00002278  00000-0 -73297-4 0  9991
2 57310  43.0031 334.2401 0001306 233.0361 127.0371 15.27571703162765
Epoch: 2026-06-20T10:20Z
TLE epoch observation values (Epoch: 2026-06-20T10:20:01.565Z)
Latitude
-0.00002°
Longitude
-89.41174°
Altitude
483.389 km
Speed
7.625 km/s
True Right ascension
22h 16m 57s
True Declination
0° 00' 00"
Sunlit
Object was in full shadow at epoch
Visualization orbit readout
Latitude
Unknown
Longitude
Unknown
Altitude
Unknown
Speed
Unknown
Apparent Right ascension
Unknown
Apparent Declination
Unknown
Sunlit
N/A
Visualization observer readout
Local Sidereal Time
21:41:19
Azimuth
Unknown
Elevation
Unknown
Doppler factor
Unknown
Orbital elements
Apogee altitude
485.915 km
Perigee altitude
484.122 km
Semi-major axis
6,863.156 km
Eccentricity
0.00013
Inclination
43.0031°
RAAN
334.2401°
Arg. of periapsis
233.0361°
True anomaly
127.04905°
Mean anomaly
127.0371°
Eccentric anomaly
127.04307°
Mean motion
3.81731 °/min
Orbital period
94.31 mins
BSTAR
-0.000073297
Loading maneuver chart data...
Computing Atmospheric mass density...

Documentation

Showing up to 5 results
|